DELTA 1 DEB, 13538

Orbit data source: Space-Track

DELTA 1 DEB, 13538 is space debris in SSO originally from a launch on Thu, 29 Jul 1976 UTC launched from the Air Force Western Test Range (AFWTR). Debris objects in space refer to the collection of defunct objects orbiting the Earth. Examples of debris include non-operational satellites, rocket bodies, and fragments generated from explosions, collisions, or faulty payload assembly.

Loading next visibility...
Identifier
13538, 1976-077EL
Orbit
SSO
Country
Flag of USUS
Related business
Manufacturer
Unknown
Mission
Spacecraft
Bus & Motor
Unknown
Mass
Unknown
Launch date (UTC)
1976-07-29 (50 years ago)
Launch vehicle
Unknown
Launch site
Air Force Western Test Range (AFWTR)
Object type
Payload
Rocket body
Debris
Shape & HBR
Unknown shape, 0.1 m
Radar Cross Section
Medium (>0.1 m² and <1 m²)

Expand to show TLE details & history
Last TLE update: 1 day ago

TLE from 1 day ago
0 DELTA 1 DEB
1 13538U 76077EL  26170.44757613 -.00000008  00000-0  31573-3 0  9991
2 13538 102.0248 157.1175 0109047  89.1221  63.6300 12.22138191 46367
Epoch: 2026-06-19T10:44Z
TLE epoch observation values (Epoch: 2026-06-19T10:44:30.577Z)
Latitude
25.53769°
Longitude
-85.87363°
Altitude
1,548.197 km
Speed
7.112 km/s
True Right ascension
22h 51m 43s
True Declination
25° 25' 03"
Sunlit
Object was in daylight at epoch
Visualization orbit readout
Latitude
Unknown
Longitude
Unknown
Altitude
Unknown
Speed
Unknown
Apparent Right ascension
Unknown
Apparent Declination
Unknown
Sunlit
N/A
Visualization observer readout
Local Sidereal Time
06:23:05
Azimuth
Unknown
Elevation
Unknown
Doppler factor
Unknown
Orbital elements
Apogee altitude
1,667.631 km
Perigee altitude
1,494.051 km
Semi-major axis
7,958.978 km
Eccentricity
0.0109
Inclination
102.0248°
RAAN
157.1175°
Arg. of periapsis
89.1221°
True anomaly
64.75631°
Mean anomaly
63.63°
Eccentric anomaly
64.19248°
Mean motion
3.05673 °/min
Orbital period
117.77 mins
BSTAR
0.00031573
Loading maneuver chart data...
Computing Atmospheric mass density...
Loading historical data...
Loading historical data...
Loading historical data...
Loading historical data...
Loading historical data...
Loading historical data...
Loading historical data...

Documentation

Showing up to 5 results
|